[[{"header":{"parameterUnit":"m.s-1","parameterCategory":1,"la1":30.2991,"la2":30.254,"lo1":-89.0895,"lo2":-89.0444,"dy":0.0017,"dx":0.0017,"nx":28,"ny":28,"refTime":"2024-05-13T09:00:00:Z","depth":0,"parameterNumber":2,"parameterNumberName":"U-component_of_WINDS"},"data":[0,0,0,0,0,0,0,0,0,0,0,0,0,0,0,0,0,0,0,0,0,0,0,0,0,0,0,0,0,0,0,0,0,0,0,0,0,0,0,0,0,0,0,0,0,0,0,0,0,0,0,0,0,0,0,0,0,0,-5.4809,-5.4809,0,-5.4857,-5.4858,-5.4858,-5.4778,-5.4776,-5.4773,-5.477,-5.4818,-5.4821,-5.4825,0,0,0,0,0,0,0,0,0,0,0,0,0,-5.4645,-5.4648,-5.4809,-5.4809,-5.481,-5.4857,-5.4858,-5.4858,-5.4779,-5.4776,-5.4772,-5.4769,-5.4816,-5.4821,-5.4825,0,0,0,0,0,0,0,0,0,0,0,0,0,-5.4707,-5.4649,-5.4808,-5.4776,-5.4774,-5.4857,-5.4858,-5.4858,-5.478,-5.4776,-5.4771,-5.4768,-5.4815,-5.482,-5.4826,-5.4942,0,0,-5.4843,-5.4846,0,0,0,0,0,0,0,0,-5.4703,-5.4713,-5.478,-5.4778,-5.4776,-5.4808,-5.4817,-5.4887,-5.4781,-5.4777,-5.477,-5.4766,-5.4817,-5.4823,-5.484,-5.4945,-5.4947,-5.4844,-5.4847,-5.485,-5.4851,0,0,0,0,0,0,0,-5.4699,-5.471,-5.4828,-5.4781,-5.4779,-5.4758,-5.4762,-5.483,-5.4819,-5.4777,-5.4772,-5.4779,-5.4815,-5.4835,-5.4841,-5.4947,-5.4844,-5.4849,-5.4852,-5.4854,-5.5147,-5.5151,0,0,0,0,0,0,-5.4699,-5.4707,-5.4826,-5.4829,-5.4729,-5.4764,-5.4769,-5.4801,-5.4819,-5.4817,-5.4782,-5.4775,-5.4828,-5.4834,-5.4842,-5.4977,-5.485,-5.4855,-5.4858,-5.5143,-5.5148,-5.5153,0,0,0,0,0,0,-5.4696,-5.4711,-5.4824,-5.4767,-5.478,-5.4772,-5.4808,-5.4805,-5.4824,-5.4822,-5.482,-5.4804,-5.4825,-5.4834,-5.4918,-5.4977,-5.4857,-5.4863,-5.5138,-5.5144,-5.515,-5.5249,0,0,0,0,0,0,-5.4692,-5.471,-5.4755,-5.4768,-5.4783,-5.49,-5.4812,-5.4808,-5.4834,-5.4825,-5.4842,-5.4841,-5.4822,-5.491,-5.4923,-5.4983,-5.4867,-5.5132,-5.5141,-5.5148,-5.524,-5.5258,-5.5273,0,0,0,0,0,-5.4686,-5.478,-5.4757,-5.4772,-5.4839,-5.4903,-5.4911,-5.4888,-5.484,-5.4884,-5.4882,-5.4841,-5.497,-5.4919,-5.4934,-5.4996,-5.5128,-5.5138,-5.5148,-5.5233,-5.5254,-5.5273,0,0,0,0,0,0,-5.4773,-5.4782,-5.4756,-5.4858,-5.4881,-5.489,-5.4944,-5.4912,-5.4949,-5.4938,-5.4908,-5.4912,-5.5001,-5.5008,-5.4951,-5.5109,-5.5041,-5.5054,-5.51,-5.5121,-5.5137,-5.5132,-5.4872,0,0,0,0,0,-5.4804,-5.4857,-5.4861,-5.495,-5.4963,-5.4953,-5.498,-5.496,-5.4982,-5.4991,-5.4995,-5.5018,-5.5063,-5.5093,-5.5135,-5.5243,-5.5243,-5.5293,-5.5309,-5.5323,-5.5333,-5.5388,-5.5409,-5.5185,-5.5185,-5.5185,0,0,-5.4868,-5.488,-5.4914,-5.4968,-5.4983,-5.5037,-5.4961,-5.5021,-5.506,-5.5,-5.5077,-5.5083,-5.5105,-5.52,-5.5243,-5.5208,-5.5396,-5.5335,-5.5346,-5.5349,-5.54,-5.5421,-5.544,-5.5192,-5.519,-5.5189,0,0,-5.5012,-5.5028,-5.5102,-5.5119,-5.5143,-5.5136,-5.5154,-5.5169,-5.5169,-5.5248,-5.5203,-5.5249,-5.5329,-5.5346,-5.5365,-5.5517,-5.5478,-5.5532,-5.5616,-5.5669,-5.5687,-5.5702,-5.5752,-5.5771,-5.5543,-5.5543,-5.5543,0,-5.5088,-5.5167,-5.5144,-5.5207,-5.5231,-5.5181,-5.5255,-5.5273,-5.5309,-5.5326,-5.5289,-5.5386,-5.5398,-5.5495,-5.5532,-5.5551,-5.5569,-5.5527,-5.5687,-5.5702,-5.5716,-5.5763,-5.5783,-5.5549,-5.5548,-5.5548,-5.5547,0,-5.5258,-5.5314,-5.5372,-5.5408,-5.5439,-5.5508,-5.5493,-5.5528,-5.5507,-5.5503,-5.5582,-5.5596,-5.5638,-5.5661,-5.5641,-5.5755,-5.5732,-5.5692,-5.5622,-5.5743,-5.5787,-5.5805,-5.5557,-5.5555,-5.5554,-5.5552,0,0,-5.5454,-5.5478,-5.5499,-5.5514,-5.5538,-5.558,-5.5647,-5.5689,-5.5717,-5.5745,-5.5797,-5.5867,-5.5829,-5.5851,-5.5833,-5.588,-5.5995,-5.5833,-5.5833,-5.5859,-5.6118,-5.6145,-5.6167,-5.5972,-5.5976,-5.5979,-5.6115,0,-5.5593,-5.5707,-5.5688,-5.5798,-5.5847,-5.5802,-5.5859,-5.5879,-5.5878,-5.5919,-5.5918,-5.5966,-5.5914,-5.5927,-5.5973,-5.5971,-5.6046,-5.5962,-5.6018,-5.602,-5.6008,-5.619,-5.622,-5.6347,-5.6132,-5.6135,-5.6137,0,-5.577,-5.5804,-5.5919,-5.5934,-5.5954,-5.6006,-5.6042,-5.6083,-5.6105,-5.6101,-5.6126,-5.6099,-5.6164,-5.6097,-5.6184,-5.6128,-5.615,-5.6154,-5.6158,-5.6158,-5.6082,-5.6191,-5.6388,-5.6405,-5.6165,-5.6163,-5.6161,0,-5.5896,-5.5971,-5.6049,-5.6064,-5.6084,-5.6121,-5.6131,-5.615,-5.6176,-5.6208,-5.6224,-5.6265,-5.6285,-5.6316,-5.63,-5.6254,-5.6389,-5.6322,-5.6385,-5.6385,-5.6411,-5.6409,-5.6609,-5.6434,-5.6434,-5.6434,-5.6433,0,-5.6051,-5.6121,-5.6105,-5.6152,-5.623,-5.6209,-5.6286,-5.629,-5.6307,-5.6353,-5.6318,-5.6362,-5.6341,-5.6383,-5.6372,-5.6443,-5.6454,-5.6451,-5.6446,-5.6451,-5.6451,-5.6462,-5.6451,-5.6439,-5.6437,-5.6436,-5.6436,0,-5.6202,-5.6195,-5.6275,-5.6289,-5.6294,-5.635,-5.6361,-5.6404,-5.6401,-5.646,-5.6473,-5.6468,-5.6516,-5.6505,-5.6558,-5.655,-5.6639,-5.6626,-5.6631,-5.6626,-5.6688,-5.6681,-5.6898,-5.6924,-5.6737,-5.6739,-5.674,0,-5.6299,-5.6352,-5.6372,-5.64,-5.6413,-5.646,-5.6487,-5.6469,-5.6498,-5.6527,-5.6566,-5.6612,-5.6646,-5.6725,-5.6725,-5.6765,-5.6749,-5.6823,-5.6755,-5.6758,-5.6745,-5.674,-5.6744,-5.6835,-5.6837,-5.6839,-5.684,0,-5.6471,-5.6464,-5.6504,-5.6543,-5.6576,-5.6606,-5.6632,-5.6658,-5.6641,-5.6676,-5.6724,-5.6751,-5.6805,-5.6849,-5.6886,-5.6896,-5.6865,-5.6863,-5.6879,-5.6882,-5.6881,-5.6878,-5.6663,-5.6857,-5.6855,-5.6854,-5.6853,-5.6852,-5.6595,-5.6639,-5.6659,-5.6704,-5.6723,-5.6748,-5.6789,-5.6791,-5.6832,-5.6874,-5.6861,-5.6916,-5.6936,-5.6983,-5.6997,-5.7039,-5.7011,-5.7035,-5.704,-5.7045,-5.7051,-5.6879,-5.7046,-5.7046,-5.7045,-5.7045,-5.7045,0,-5.6761,-5.6772,-5.6814,-5.6851,-5.6887,-5.6857,-5.6885,-5.6916,-5.6965,-5.6987,-5.7022,-5.7077,-5.712,-5.7125,-5.7165,-5.7198,-5.7184,-5.7208,-5.7203,-5.7205,-5.7076,-5.7056,-5.7218,-5.7218,-5.7218,-5.7218,-5.7218,-5.7218,-5.6851,-5.6923,-5.6919,-5.7,-5.701,-5.7063,-5.7081,-5.7104,-5.7121,-5.7184,-5.722,-5.7223,-5.7238,-5.7279,-5.7317,-5.7317,-5.7331,-5.736,-5.7355,-5.7232,-5.7215,-5.7198,-5.7179,-5.7365,-5.7365,-5.748,-5.7481,-5.7482]},{"header":{"parameterUnit":"m.s-1","parameterCategory":1,"la1":30.2991,"la2":30.254,"lo1":-89.0895,"lo2":-89.0444,"dy":0.0017,"dx":0.0017,"nx":28,"ny":28,"refTime":"2024-05-13T09:00:00:Z","depth":0,"parameterNumber":3,"parameterNumberName":"V-component_of_WINDS"},"data":[0,0,0,0,0,0,0,0,0,0,0,0,0,0,0,0,0,0,0,0,0,0,0,0,0,0,0,0,0,0,0,0,0,0,0,0,0,0,0,0,0,0,0,0,0,0,0,0,0,0,0,0,0,0,0,0,0,0,2.9166,2.9166,0,2.915,2.915,2.915,2.9052,2.9049,2.9047,2.9045,2.9028,2.903,2.9031,0,0,0,0,0,0,0,0,0,0,0,0,0,2.9115,2.9116,2.9166,2.9166,2.9166,2.915,2.915,2.9149,2.9052,2.9049,2.9046,2.9044,2.9027,2.903,2.9032,0,0,0,0,0,0,0,0,0,0,0,0,0,2.9122,2.9117,2.9166,2.9115,2.9111,2.915,2.915,2.9149,2.9053,2.9049,2.9046,2.9042,2.9027,2.9029,2.9032,2.9119,0,0,2.904,2.9041,0,0,0,0,0,0,0,0,2.9121,2.9124,2.9123,2.9119,2.9114,2.9099,2.9125,2.9139,2.9054,2.9075,2.9045,2.9041,2.9055,2.9055,2.9059,2.9118,2.9117,2.904,2.9042,2.9043,2.9044,0,0,0,0,0,0,0,2.9121,2.9124,2.916,2.9123,2.9118,2.9094,2.9091,2.9127,2.9085,2.9073,2.9066,2.9065,2.9051,2.9057,2.9058,2.9117,2.904,2.9042,2.9044,2.9045,2.9247,2.925,0,0,0,0,0,0,2.9128,2.9124,2.916,2.9159,2.9109,2.9098,2.9094,2.9108,2.9084,2.9077,2.9068,2.9061,2.9054,2.9055,2.9057,2.9157,2.9043,2.9045,2.9047,2.9243,2.9248,2.9252,0,0,0,0,0,0,2.9127,2.9132,2.9161,2.914,2.9142,2.9102,2.9118,2.9109,2.9114,2.908,2.9072,2.9082,2.9052,2.9054,2.9104,2.9155,2.9046,2.9049,2.9239,2.9244,2.925,2.9357,0,0,0,0,0,0,2.9126,2.9132,2.9164,2.9141,2.9143,2.9208,2.9121,2.9111,2.9119,2.9109,2.9091,2.9085,2.9049,2.9101,2.9107,2.9157,2.9051,2.9234,2.9241,2.9248,2.9349,2.9366,2.9381,0,0,0,0,0,2.9124,2.9195,2.9166,2.9171,2.9182,2.9211,2.9212,2.917,2.9124,2.9156,2.9134,2.9085,2.9149,2.9107,2.9113,2.9164,2.923,2.9239,2.9247,2.9342,2.9363,2.938,0,0,0,0,0,0,2.9224,2.9191,2.9159,2.9224,2.9221,2.9195,2.9233,2.9193,2.9203,2.9193,2.914,2.9137,2.9196,2.9185,2.9139,2.9247,2.9181,2.9192,2.9251,2.9271,2.9286,2.9287,2.9053,0,0,0,0,0,2.9254,2.928,2.925,2.931,2.9311,2.9273,2.9284,2.9252,2.9247,2.9245,2.9227,2.9224,2.9243,2.9257,2.9273,2.9348,2.9343,2.9387,2.9403,2.9416,2.9424,2.9463,2.9482,2.928,2.928,2.9279,0,0,2.9315,2.93,2.932,2.933,2.9324,2.9352,2.9272,2.9305,2.9326,2.925,2.9296,2.9284,2.9277,2.934,2.9367,2.9333,2.948,2.9427,2.9437,2.9438,2.9474,2.9493,2.951,2.9285,2.9284,2.9283,0,0,2.9441,2.9433,2.9482,2.9478,2.9471,2.9446,2.9458,2.9438,2.9427,2.9473,2.9417,2.9441,2.9475,2.9473,2.9476,2.9605,2.956,2.9612,2.9693,2.9732,2.9748,2.9762,2.9806,2.9823,2.9621,2.9621,2.9621,0,2.9517,2.9557,2.9513,2.955,2.9556,2.949,2.954,2.9539,2.9537,2.9543,2.9505,2.9548,2.9539,2.9601,2.9632,2.9638,2.965,2.9612,2.9749,2.9763,2.9775,2.9817,2.9834,2.9627,2.9627,2.9626,2.9625,0,2.9652,2.9681,2.9722,2.9723,2.9734,2.9778,2.974,2.9757,2.9725,2.9704,2.9753,2.974,2.9752,2.9765,2.9734,2.9824,2.9803,2.9759,2.969,2.9801,2.984,2.9856,2.9636,2.9634,2.9632,2.9631,0,0,2.9836,2.9814,2.9829,2.9829,2.9817,2.9839,2.9881,2.9893,2.9908,2.9911,2.9944,2.9976,2.9935,2.9939,2.9908,2.9942,3.0044,2.9893,2.9892,2.992,3.0141,3.0173,3.0193,3.0015,3.0018,3.0021,3.0141,0,2.9956,3.0024,2.9986,3.006,3.0087,3.0026,3.0062,3.0059,3.0042,3.0062,3.0043,3.0066,3.0011,3.0013,3.0045,3.0025,3.0087,3.0016,3.0045,3.0046,3.0046,3.0213,3.0247,3.0361,3.0156,3.0159,3.0161,0,3.0103,3.0112,3.0189,3.0173,3.0183,3.0216,3.0225,3.0245,3.0241,3.0226,3.0233,3.0193,3.0233,3.0169,3.0223,3.0175,3.0186,3.0178,3.0182,3.0181,3.0108,3.0215,3.0396,3.0413,3.0184,3.0182,3.0181,0,3.0228,3.026,3.031,3.0312,3.0295,3.032,3.0314,3.0307,3.0318,3.0326,3.0332,3.0346,3.0353,3.0365,3.033,3.0286,3.0389,3.0322,3.0377,3.0378,3.0399,3.0398,3.0583,3.041,3.0409,3.0409,3.0409,0,3.0364,3.0413,3.0366,3.0396,3.045,3.0407,3.0462,3.0449,3.0444,3.0471,3.0421,3.0448,3.0402,3.0424,3.0398,3.0447,3.0451,3.0439,3.0431,3.0443,3.0444,3.0447,3.0437,3.0414,3.0413,3.0412,3.0411,0,3.0511,3.0482,3.0532,3.0514,3.051,3.055,3.0534,3.0562,3.0542,3.0578,3.0584,3.0553,3.0577,3.0545,3.0566,3.0548,3.0615,3.0596,3.0616,3.0609,3.0666,3.0661,3.0858,3.0881,3.0695,3.0697,3.0698,0,3.0598,3.0635,3.0621,3.0636,3.0633,3.0658,3.0669,3.0629,3.0643,3.0643,3.0671,3.0691,3.0704,3.0746,3.0725,3.0741,3.0721,3.0789,3.0723,3.0733,3.072,3.0718,3.0721,3.0802,3.0804,3.0806,3.0807,0,3.0756,3.074,3.0758,3.0772,3.0786,3.0795,3.08,3.0815,3.0774,3.0792,3.0816,3.0827,3.0849,3.087,3.0881,3.0875,3.0835,3.0829,3.0842,3.0853,3.0863,3.0857,3.0651,3.0824,3.0822,3.0821,3.082,3.0819,3.0875,3.0904,3.09,3.0921,3.0922,3.0928,3.0953,3.0938,3.0957,3.0972,3.0948,3.0979,3.0976,3.0986,3.0986,3.1009,3.098,3.0999,3.1004,3.1009,3.1017,3.0861,3.1011,3.1011,3.101,3.101,3.101,0,3.1028,3.1023,3.1044,3.1053,3.1071,3.1033,3.1037,3.1054,3.1082,3.1082,3.1098,3.1126,3.1146,3.1129,3.1145,3.1168,3.115,3.1173,3.117,3.117,3.1043,3.1029,3.1188,3.1188,3.1188,3.1188,3.1188,3.1188,3.111,3.1159,3.1143,3.1192,3.1186,3.1216,3.1221,3.1227,3.1227,3.1262,3.1279,3.1268,3.1261,3.1277,3.1294,3.1289,3.1297,3.1327,3.1314,3.1196,3.1178,3.1162,3.1148,3.1329,3.1329,3.1438,3.1439,3.144]}]]